Lid_Strength_Index
9 9 9 9 9 10 10 11 10 9 9 8 9 9 9 10 10 9 9 8 9 8 8 7 6 5 1 1 1 1 1 2 1 3 4 4 4 5 4 4 3 4 4
10 9 9 9 9 10 10 10 11 10 9 8 8 9 9 9 9 10 9 9 9 9 9 9 7 6 5 1 1 1 2 2 1 3 4 6 5 4 5 4 4 5 4
10 10 9 11 10 10 10 9 11 11 9 9 8 8 8 8 9 11 10 10 8 10 9 9 8 7 6 4 1 1 1 3 1 2 3 6 6 5 4 4 4 5 5
10 10 10 10 9 9 9 9 10 11 10 8 9 10 10 10 9 11 10 11 10 9 10 10 10 8 7 6 4 1 1 2 3 2 2 3 4 5 6 4 4 4 5
11 11 10 10 9 9 9 9 9 10 11 9 9 10 10 9 9 9 10 11 10 10 9 10 10 9 8 7 7 3 1 1 2 2 3 4 4 4 5 6 5 5 4
11 10 9 8 8 8 8 8 8 9 10 10 9 10 11 10 10 9 11 11 10 10 9 10 10 10 9 7 7 6 2 1 1 1 2 3 4 4 5 5 5 5 5
10 10 10 9 8 8 7 7 7 8 8 10 11 10 10 10 10 9 10 11 11 11 10 10 9 10 8 7 7 6 5 1 2 1 2 2 3 3 3 4 5 5 4
11 10 8 8 8 7 7 7 7 6 7 8 10 11 10 10 9 9 9 9 9 10 10 10 9 8 8 8 7 6 5 4 1 2 2 2 2 2 2 3 4 5 5
11 9 8 8 8 8 7 7 7 6 5 7 9 10 11 9 9 9 8 8 8 9 10 9 8 8 7 8 8 8 6 5 3 1 1 1 1 2 2 2 2 4 6
11 10 9 9 7 7 7 7 6 6 6 6 8 8 10 10 9 9 9 8 8 8 9 9 8 8 9 10 9 9 8 8 6 1 1 1 1 1 1 2 2 2 3
12 11 10 8 7 7 7 6 6 5 6 6 7 8 9 9 9 9 8 8 7 7 7 7 7 9 10 10 10 9 9 9 7 6 1 1 1 1 1 1 2 2 2
11 11 10 9 8 7 7 7 6 6 6 6 6 6 7 8 9 9 9 8 7 7 7 7 7 10 11 10 11 10 10 10 9 8 6 4 1 1 1 1 1 2 2
11 11 10 9 8 8 7 7 7 7 6 6 6 6 7 7 8 9 8 7 7 6 6 8 9 9 9 10 10 10 10 9 9 8 7 6 4 2 2 1 2 1 2
12 11 11 10 8 8 7 8 7 6 7 6 7 7 7 7 7 7 7 7 7 6 7 9 9 9 10 10 10 9 9 8 7 7 6 5 7 8 2 1 2 1 2
12 12 11 10 10 9 8 8 7 7 7 7 7 7 7 6 6 6 6 7 7 7 8 9 9 10 10 10 10 10 9 8 7 7 7 7 10 11 10 6 2 2 2
13 11 11 10 11 9 8 8 8 8 7 8 7 7 6 6 5 4 5 6 7 7 8 9 10 10 10 10 10 10 8 7 9 10 9 8 10 11 12 12 11 11 2
13 12 11 12 11 10 9 9 9 8 9 9 8 8 7 7 5 5 5 6 7 7 9 11 11 11 11 10 10 10 8 8 8 10 11 10 10 12 12 11 10 9 9
13 12 13 13 12 11 10 9 9 9 9 9 9 8 8 7 6 6 7 6 6 7 10 12 12 12 11 10 10 10 8 9 9 10 11 11 12 12 12 10 8 7 6
14 14 14 13 13 12 11 11 10 10 10 10 10 9 8 8 6 7 8 8 8 9 10 11 13 13 13 11 10 10 9 10 10 10 10 11 12 12 12 11 11 10 9
15 15 14 13 13 12 12 13 12 11 11 10 10 9 8 8 7 9 10 10 10 9 10 11 12 12 13 11 10 10 10 11 11 11 11 12 12 12 13 13 13 13 12
15 15 15 14 14 13 13 14 13 13 12 10 10 9 9 8 8 10 10 11 11 11 11 11 12 12 12 12 11 11 11 11 12 13 13 13 12 12 13 13 14 14 13
15 15 15 15 15 14 14 15 14 13 12 12 11 10 9 7 9 10 11 11 12 12 12 12 12 11 12 11 11 11 11 12 13 14 13 13 13 13 13 13 13 14 13
17 16 16 16 16 16 15 15 14 13 12 12 12 12 10 9 10 11 11 12 12 13 13 13 13 12 11 11 10 11 11 12 13 13 13 13 13 13 14 14 14 14 14
17 17 17 17 17 16 15 15 14 13 13 13 12 12 11 10 10 10 10 12 13 13 13 13 14 14 13 12 11 11 12 12 13 13 14 15 15 15 15 15 15 15 16
17 17 18 18 17 16 16 15 14 14 14 13 13 12 12 11 10 11 11 11 11 12 13 14 13 14 14 12 11 11 12 12 12 13 13 15 16 17 17 16 16 16 17
17 17 17 17 17 16 16 15 15 14 15 14 14 13 12 13 12 11 10 9 9 9 9 9 11 11 10 10 11 11 11 11 12 14 15 15 15 16 17 17 17 17 17